This demonstration page uses our WeatherBlox Daily Observations layout. Learn more.

40.92945, -100.16068

Hourly Observations for August 21, 2018

Temp ( °F °C ) Dew Point ( °F °C ) Humidity (%) Winds ( mph kmh ) Pressure ( in mb ) Visibility ( mi km ) Precip ( " mm )
12:15 am 00:15 Clear 56 13.6 54 12.3 92 92 Calm 30.15 1021 10 16.0934 0 0
1:55 am 01:55 Clear 55 12.7 53 11.7 94 94 WNW 6 9 30.15 1021 7 11.26538 0 0
2:15 am 02:15 Clear 55 12.6 53 11.5 93 93 WNW 6 9 30.18 1022 7 11.26538 0 0
2:35 am 02:35 Clear 55 12.5 53 11.4 93 93 WNW 6 9 30.18 1022 10 16.0934 0 0
2:55 am 02:55 Clear 54 12.1 52 11.1 94 94 W 6 9 30.18 1022 7 11.26538 0 0
3:15 am 03:15 Clear 54 12.3 52 11.2 93 93 WNW 8 13 30.18 1022 10 16.0934 0 0
3:35 am 03:35 Clear 54 12.2 52 11 92 92 NW 6 9 30.18 1022 10 16.0934 0 0
3:55 am 03:55 Clear 53 11.8 51 10.7 93 93 NW 6 9 30.18 1022 7 11.26538 0 0
4:15 am 04:15 Clear 53 11.6 51 10.5 93 93 Calm 30.21 1023 10 16.0934 0 0
4:35 am 04:35 Clear 53 11.4 51 10.3 93 93 Calm 30.21 1023 10 16.0934 0 0
4:55 am 04:55 Clear 52 11.1 50 10.1 94 94 WNW 3 6 30.21 1023 7 11.26538 0 0
5:15 am 05:15 Clear 53 11.5 51 10.5 94 94 NW 5 7 30.21 1023 7 11.26538 0 0
5:35 am 05:35 Clear 53 11.5 51 10.6 94 94 NNW 6 9 30.21 1023 7 11.26538 0 0
5:55 am 05:55 Clear 53 11.6 51 10.7 94 94 N 3 6 30.21 1023 7 11.26538 0 0
6:15 am 06:15 Clear 53 11.8 52 11 95 95 NNW 6 9 30.18 1022 7 11.26538 0 0
6:35 am 06:35 Clear 53 11.9 52 11 94 94 N 3 6 30.18 1022 7 11.26538 0 0
6:55 am 06:55 Clear 54 12 52 11.1 94 94 N 6 9 30.18 1022 7 11.26538 0 0
7:15 am 07:15 Sunny with Mist and Fog 54 12.2 52 11.2 94 94 Calm 30.21 1023 5 8.0467 0 0
7:35 am 07:35 Sunny with Mist and Fog 54 12.1 52 11.2 94 94 W 6 9 30.21 1023 5 8.0467 0 0
7:55 am 07:55 Sunny with Mist and Fog 54 12.3 53 11.5 95 95 WNW 5 7 30.24 1024 5 8.0467 0 0
8:15 am 08:15 Sunny with Mist and Fog 56 13.4 54 12.4 94 94 W 5 7 30.24 1024 5 8.0467 0 0
8:35 am 08:35 Sunny 57 14 55 12.5 91 91 NNW 3 6 30.21 1023 7 11.26538 0 0
8:55 am 08:55 Sunny 58 14.2 55 12.5 90 90 Calm 30.21 1023 7 11.26538 0 0
9:15 am 09:15 Sunny 58 14.3 55 13 92 92 WNW 8 13 30.24 1024 7 11.26538 0 0
9:35 am 09:35 Partly Cloudy with Mist and Fog 58 14.2 55 12.9 92 92 WNW 7 11 30.24 1024 5 8.0467 0 0
9:55 am 09:55 Mostly Cloudy with Mist and Fog 57 14.1 55 12.9 93 93 WNW 5 7 30.27 1025 5 8.0467 0 0
10:15 am 10:15 Cloudy with Rain 57 14.1 55 12.9 93 93 Calm 30.27 1025 7 11.26538 0 0
10:35 am 10:35 Cloudy with Rain 58 14.2 56 13.1 93 93 NNW 5 7 30.27 1025 4 6.43736 0.06 1.524
10:55 am 10:55 Cloudy with Light Rain 58 14.5 56 13.3 93 93 Calm 30.24 1024 5 8.0467 0.07 1.778
11:15 am 11:15 Cloudy 59 15 57 13.8 93 93 NW 5 7 30.27 1025 7 11.26538 0 0
11:35 am 11:35 Cloudy 59 15.2 57 13.8 91 91 W 5 7 30.27 1025 7 11.26538 0 0
11:55 am 11:55 Mostly Cloudy 60 15.4 56 13.6 89 89 W 5 7 30.27 1025 7 11.26538 0 0
12:15 pm 12:15 Partly Cloudy 60 15.8 57 14 89 89 W 3 6 30.27 1025 7 11.26538 0 0
12:35 pm 12:35 Partly Cloudy with Light Drizzle 61 16 57 13.9 87 87 W 3 6 30.24 1024 10 16.0934 0 0
12:55 pm 12:55 Mostly Cloudy 62 16.7 58 14.6 88 88 W 5 7 30.24 1024 7 11.26538 0 0
1:15 pm 13:15 Partly Cloudy 62 16.9 58 14.3 85 85 WNW 3 6 30.24 1024 7 11.26538 0 0
1:35 pm 13:35 Mostly Cloudy 64 17.8 58 14.3 80 80 Calm 30.21 1023 10 16.0934 0 0
1:55 pm 13:55 Mostly Cloudy 65 18.4 58 14.2 77 77 N 5 7 30.21 1023 10 16.0934 0 0
2:15 pm 14:15 Partly Cloudy 67 19.4 56 13.5 69 69 N 6 9 30.18 1022 10 16.0934 0 0
2:35 pm 14:35 Sunny 68 19.8 56 13.5 67 67 NNE 6 9 30.15 1021 10 16.0934 0 0
2:55 pm 14:55 Partly Cloudy 69 20.5 57 14 66 66 NNE 8 13 30.15 1021 10 16.0934 0 0
3:15 pm 15:15 Partly Cloudy 70 21 56 13.6 63 63 N 3 6 30.15 1021 10 16.0934 0 0
3:35 pm 15:35 Partly Cloudy 71 21.4 56 13.1 59 59 NE 9 15 30.15 1021 10 16.0934 0 0
3:55 pm 15:55 Partly Cloudy 71 21.6 54 12.4 56 56 NNE 3 6 30.18 1022 10 16.0934 0 0
4:15 pm 16:15 Partly Cloudy 72 22 55 13 57 57 ENE 7 11 30.18 1022 10 16.0934 0 0
4:35 pm 16:35 Partly Cloudy 72 22 54 12.3 54 54 N 9 15 30.15 1021 10 16.0934 0 0
4:55 pm 16:55 Partly Cloudy 72 22 54 12.1 54 54 NE 9 15 30.15 1021 10 16.0934 0 0
5:15 pm 17:15 Cloudy 70 21 55 12.7 59 59 NNE 7 11 30.15 1021 10 16.0934 0 0
5:35 pm 17:35 Cloudy 70 21.3 54 12.4 57 57 NNE 9 15 30.18 1022 10 16.0934 0 0
5:55 pm 17:55 Mostly Cloudy 69 20.3 54 12.3 60 60 NNE 5 7 30.18 1022 10 16.0934 0 0
6:15 pm 18:15 Cloudy 69 20.5 56 13.1 63 63 NNE 7 11 30.18 1022 10 16.0934 0 0
6:35 pm 18:35 Cloudy 68 20.1 57 13.8 67 67 NE 6 9 30.18 1022 10 16.0934 0 0
6:55 pm 18:55 Cloudy 67 19.7 55 13 65 65 NE 6 9 30.18 1022 10 16.0934 0 0
7:15 pm 19:15 Mostly Cloudy 66 19 56 13.5 71 71 NE 5 7 30.18 1022 10 16.0934 0 0
7:35 pm 19:35 Sunny 65 18.4 56 13.4 73 73 NE 3 6 30.21 1023 10 16.0934 0 0
7:55 pm 19:55 Sunny 64 18 57 14 78 78 Calm 30.21 1023 10 16.0934 0 0
8:15 pm 20:15 Sunny 64 17.6 58 14.4 82 82 NNE 3 6 30.24 1024 10 16.0934 0 0
8:35 pm 20:35 Clear 63 17 57 13.7 81 81 NE 3 6 30.24 1024 10 16.0934 0 0
8:55 pm 20:55 Clear 62 16.6 56 13.1 80 80 ENE 5 7 30.24 1024 10 16.0934 0 0
9:15 pm 21:15 Clear 61 16 55 12.7 81 81 Calm 30.24 1024 7 11.26538 0 0
9:35 pm 21:35 Clear 59 15.2 55 13 87 87 NE 3 6 30.27 1025 10 16.0934 0 0
9:55 pm 21:55 Clear 59 15 55 12.7 86 86 Calm 30.3 1026 10 16.0934 0 0
10:15 pm 22:15 Clear 58 14.5 55 12.8 90 90 Calm 30.27 1025 10 16.0934 0 0
10:35 pm 22:35 Clear 58 14.3 55 12.5 89 89 Calm 30.27 1025 10 16.0934 0 0
10:55 pm 22:55 Clear 57 13.8 54 12.1 90 90 ENE 3 6 30.27 1025 10 16.0934 0 0
11:15 pm 23:15 Clear 57 13.7 53 11.8 88 88 NE 5 7 30.27 1025 10 16.0934 0 0
11:35 pm 23:35 Clear 56 13.3 53 11.6 90 90 NE 5 7 30.27 1025 10 16.0934 0 0
11:55 pm 23:55 Clear 56 13.3 53 11.7 90 90 ENE 5 7 30.27 1025 10 16.0934 0 0

Powered by AerisWeather